Regional Weather Roundup
Issued by NWS

Home | Current Version | Previous Version | Text Only | Print | Product List | Glossary Off
Versions: 1 2 3 4 5 6 7 8 9 10 11 12 13 14 15 16 17 18 19 20 21 22 23 24 25 26 27 28 29 30 31 32 33 34 35 36 37 38 39 40 41 42 43 44 45 46 47 48 49 50

000
ASUS43 KOAX 311210
RWRNE

WEATHER ROUNDUP FOR NEBRASKA
NATIONAL WEATHER SERVICE OMAHA NE
700 AM CDT WED AUG 31 2016

NOTES: SATELLITE DATA IS BEING USED TO AUGMENT CLOUD COVER ABOVE
       12000 FEET.
       "FAIR" INDICATES FEW OR NO CLOUDS BELOW 12,000 FEET WITH NO
       SIGNIFICANT WEATHER AND/OR OBSTRUCTIONS TO VISIBILITY.

  * THESE STATIONS DO NOT REPORT WEATHER SUCH AS RAIN...SNOW OR FOG.

NEZ001>004-019>022-054>056-311300-
NEBRASKA PANHANDLE

CITY           SKY/WX    TMP DP  RH WIND       PRES   REMARKS
SCOTTSBLUFF    CLOUDY    56  55  97 SE6       30.26R FOG
6HR MIN TEMP:  56; 6HR MAX TEMP:  60;

ALLIANCE       FOG       61  60  97 S6        30.25S VSB 1
6HR MIN TEMP:  50; 6HR MAX TEMP:  62;

CHADRON        CLEAR     54  51  90 CALM      30.21S
6HR MIN TEMP:  53; 6HR MAX TEMP:  67;

KIMBALL        FOG       58  58 100 CALM      30.29F VSB 1
SIDNEY         CLOUDY    62  61  96 SE7       30.27S FOG
6HR MIN TEMP:  61; 6HR MAX TEMP:  62;

$$

NEZ057>060-069>072-079>082-311300-
SOUTHWEST NEBRASKA

CITY           SKY/WX    TMP DP  RH WIND       PRES   REMARKS
NORTH PLATTE   FOG       63  62  97 CALM      30.24S VSB 1
6HR MIN TEMP:  61; 6HR MAX TEMP:  65;

IMPERIAL       LGT RAIN  64  61  90 CALM      30.23S
6HR MIN TEMP:  64; 6HR MAX TEMP:  66; 6HR PCP:  0.66;

LEXINGTON      CLOUDY    65  64  96 NE3       30.21F FOG
MCCOOK         LGT RAIN  65  64  97 E3        30.21F FOG
6HR MIN TEMP:  64; 6HR MAX TEMP:  68; 6HR PCP: TRACE;

OGALLALA       CLOUDY    66  65  96 E3        30.24S FOG
$$

NEZ005>010-023>029-035>040-094-311300-
NORTH CENTRAL NEBRASKA

CITY           SKY/WX    TMP DP  RH WIND       PRES   REMARKS
VALENTINE      CLEAR     57  56  96 S3        30.22S FOG
6HR MIN TEMP:  57; 6HR MAX TEMP:  66;

AINSWORTH      FOG       55  55 100 CALM      30.23S VSB 1/4
BROKEN BOW     FOG       63  63 100 CALM      30.23S VSB 1/4
6HR MIN TEMP:  58; 6HR MAX TEMP:  63;

O`NEILL        FOG       60  58  96 CALM      30.23S VSB 1/2
ORD            FOG       63  61  93 CALM      30.21R VSB 1/4
6HR MIN TEMP:  60; 6HR MAX TEMP:  63;

THEDFORD       FOG       56  56  99 CALM      30.25S VSB<1/4
$$

NEZ041-046>049-061>064-073>077-083>087-311300-
SOUTH CENTRAL NEBRASKA

CITY           SKY/WX    TMP DP  RH WIND       PRES   REMARKS
GRAND ISLAND   FOG       66  66 100 CALM      30.20F VSB 1/4
6HR MIN TEMP:  65; 6HR MAX TEMP:  68;

AURORA         CLOUDY    66  66 100 NE6       30.20S FOG
HASTINGS       CLOUDY    68  66  93 NE7       30.21R FOG
6HR MIN TEMP:  66; 6HR MAX TEMP:  69;

HEBRON         CLOUDY    69  68  98 CALM      30.17S FOG
HOLDREGE       CLOUDY    66  65  96 N3        30.20F THUNDER FOG
KEARNEY *      CLOUDY    66  64  94 N5        30.20S
YORK           CLOUDY    66  66 100 N6        30.19F FOG
$$

NEZ011>018-030>034-042>045-311300-
NORTHEAST NEBRASKA

CITY           SKY/WX    TMP DP  RH WIND       PRES   REMARKS
NORFOLK        CLOUDY    64  64 100 E3        30.21R FOG
6HR MIN TEMP:  63; 6HR MAX TEMP:  66;

ALBION         CLOUDY    62  60  94 CALM      30.21S FOG
BLAIR          PTCLDY    66  64  93 N7        30.18S
FREMONT        PTCLDY    67  65  95 NE3       30.19S
TEKAMAH        FOG       61  60  97 N7        30.19R VSB 1/2
6HR MIN TEMP:  61; 6HR MAX TEMP:  68;

WAYNE          FOG       65  65  99 CALM      30.22S VSB<1/4
$$

NEZ050>053-065>068-078-088>093-311300-
SOUTHEAST NEBRASKA

CITY           SKY/WX    TMP DP  RH WIND       PRES   REMARKS
LINCOLN        CLOUDY    70  68  93 N6        30.18R
6HR MIN TEMP:  69; 6HR MAX TEMP:  71;

OMAHA EPPLEY   MOCLDY    66  63  90 N3        30.17S
6HR MIN TEMP:  66; 6HR MAX TEMP:  72;

BEATRICE       MOCLDY    69  68  98 N3        30.16S
FALLS CITY     CLOUDY    71  70  96 N5        30.13R
6HR MIN TEMP:  71; 6HR MAX TEMP:  73; 6HR PCP:  0.01;

NEBRASKA CITY  CLOUDY    69  69 100 NE6       30.16S
PLATTSMOUTH    CLOUDY    67  65  93 N3        30.17S
$$

NEZ044-045-051>053-067-311300-
OMAHA AREA

CITY           SKY/WX    TMP DP  RH WIND       PRES   REMARKS
OMAHA EPPLEY   MOCLDY    66  63  90 N3        30.17S
6HR MIN TEMP:  66; 6HR MAX TEMP:  72;

BLAIR          PTCLDY    66  64  93 N7        30.18S
FREMONT        PTCLDY    67  65  95 NE3       30.19S
MILLARD        PTCLDY   N/A N/A N/A CALM      30.18R
OFFUTT AFB     CLOUDY    68  65  91 N3        30.16S
PLATTSMOUTH    CLOUDY    67  65  93 N3        30.17S
WAHOO          CLOUDY    67  66  96 NE3       30.18S
$$




USA.gov is the U.S. government's official web portal to all federal, state and local government web resources and services.